Regional Weather Roundup
Issued by NWS

Home | Current Version | Previous Version | Text Only | Print | Product List | Glossary Off
Versions: 1 2 3 4 5 6 7 8 9 10 11 12 13 14 15 16 17 18 19 20 21 22 23 24 25 26 27

000
ASUS45 KTFX 210610
RWRMT
MONTANA REGIONAL WEATHER ROUNDUP
NATIONAL WEATHER SERVICE GREAT FALLS MT
1100 PM MST SAT JAN 20 2018

NOTE: "FAIR" INDICATES FEW OR NO CLOUDS BELOW 12000 FEET WITH NO
SIGNIFICANT WEATHER AND/OR OBSTRUCTIONS TO VISIBILITY.

MTZ001>007-043-210700-
WEST OF THE DIVIDE

CITY           SKY/WX    TMP DP  RH WIND       PRES   REMARKS
KALISPELL      CLOUDY    29  27  92 CALM      30.06R
MISSOULA       CLOUDY    27  23  85 NW3       30.08R
BUTTE          CLOUDY    20  15  81 CALM      30.00R
MULLAN PASS    CLOUDY    22  19  89 SW6       29.98R WCI  14
ANACONDA         N/A     21  18  86 CALM      30.02R
DEER LODGE       N/A     23  19  86 CALM      30.04S
EUREKA           N/A     34  27  75 MISG      30.05S
HAMILTON         N/A     30  25  80 SE5       30.08R
PLAINS           N/A     30  24  78 CALM      30.08R
RONAN            N/A     30  27  86 SE5       30.09R
$$

MTZ008-052>055-210700-
SOUTHWEST MONTANA

CITY           SKY/WX    TMP DP  RH WIND       PRES   REMARKS
BOZEMAN        CLOUDY    25  19  78 CALM      30.03R
DILLON         CLOUDY    19  15  84 CALM      30.01R
ENNIS          CLOUDY    21  16  79 CALM      30.04R
W YELLOWSTONE  CLOUDY    -4  -8  84 CALM      29.94S
THREE FORKS      N/A     26  23  88 CALM      30.01R
TWIN BRIDGES     N/A     25  16  68 CALM      30.01R
$$

MTZ009-010-012-014-046-048-049-054-210700-
EAST SLOPES AND CENTRAL MONTANA

CITY           SKY/WX    TMP DP  RH WIND       PRES   REMARKS
CUT BANK       FAIR      26  18  71 SW8       29.89R WCI  18
GREAT FALLS    FAIR      27  18  69 SW13      29.95S WCI  16
MALMSTROM AFB  FAIR      25  20  79 SW10      29.97R WCI  15
HELENA         FAIR      26  17  68 CALM      30.01R
AUGUSTA        FAIR      28  17  63 W16       29.93R WCI  16
BOWMANS CRNR   FAIR      22  17  82 S9        29.94R WCI  12
CHOTEAU          N/A     28  16  59 SW8       29.94S WCI  20
FAIRFIELD      FAIR      25  16  69 SW12      29.93R WCI  14
POWER          FAIR      19  14  79 SW10      29.94R WCI   8
RAYNESFORD     FAIR      31  16  55 SW18      29.96R WCI  19
ULM            FAIR      24  19  81 S5        29.97R
WHITE SULPHUR    N/A     14   9  79 CALM      29.97R
$$

MTZ011-013-016-021-045-047-050-051-210700-
NORTH CENTRAL MONTANA

CITY           SKY/WX    TMP DP  RH WIND       PRES   REMARKS
HAVRE          FAIR      25  19  78 SW10      29.94R WCI  15
LEWISTOWN      MOCLDY    22  16  78 CALM      29.95S
N BAR RANCH    FAIR      23  12  63 W8        29.97R WCI  14
CHINOOK          N/A     10   9  92 CALM      29.96R
DENTON         MOCLDY    26  18  73 MISG      29.92R
GEYSER         FAIR      24  17  75 W10       29.94S WCI  13
GRASS RANGE    FAIR      28  18  66 SW14      29.92R WCI  17
STANFORD       FAIR      25  17  72 W9        29.93S WCI  15
WINIFRED       FAIR      29  19  68 SW9       29.94R WCI  20
$$

MTZ017>020-022>027-061-062-210700-
NORTHEAST MONTANA

CITY           SKY/WX    TMP DP  RH WIND       PRES   REMARKS
GLASGOW        FAIR      17  13  84 S5        29.94R
GLENDIVE       FAIR      13  10  88 CALM      29.98R
JORDAN           N/A     12   8  84 NW6       29.96R WCI   3
MALTA          CLEAR     12  12 100 W10       29.95R WCI  -1
SIDNEY         FAIR      20  17  88 SW6       29.98R WCI  12
WOLF POINT     FAIR      10   5  80 NW5       29.97R
PLENTYWOOD       N/A     16  14  93 CALM      29.93S
POPLAR           N/A     18  16  93 CALM      29.97R
SCOBEY           N/A     12   4  70 CALM      29.91R
$$

MTZ028>42-056>058-210700-
SOUTHCENTRAL AND SOUTHEAST MONTANA

CITY           SKY/WX    TMP DP  RH WIND       PRES   REMARKS
BAKER          FAIR      19  16  88 CALM      29.98R
BILLINGS       FAIR      26  17  68 SW10      29.98S WCI  16
LIVINGSTON     CLOUDY    27  19  72 W7        29.99R WCI  19
MILES CITY     FAIR      20  18  92 SW3       29.99R
BIG TIMBER     CLEAR     25  16  68 W13       29.99S WCI  13
EKALAKA          N/A     26  16  66 SE3       29.94R
FORSYTH          N/A     19  18  93 CALM      29.99R
HARLOWTON      FAIR      22  16  76 W16       29.96R WCI   8
LAUREL           N/A     23  16  74 SW9       30.00R WCI  13
ROUNDUP          N/A     21  11  65 S12       29.89R WCI   9
$$

REGIONAL REPORTS...DAKOTAS

CITY           SKY/WX    TMP DP  RH WIND       PRES   REMARKS
WILLISTON      FAIR      19  15  84 CALM      29.96R
MINOT          FAIR      24  18  77 SW8       29.95R WCI  15
DICKINSON      FAIR      24  18  77 W9        29.94R WCI  14
BEACH          FAIR      23  18  80 W10       29.99R WCI  12
CROSBY         FAIR      12  10  92 S7        29.95R WCI   2
TIOGA          FAIR      12  12 100 CALM      29.95R
BISMARCK       FAIR      26  22  84 W5        29.98R
GRAND FORKS    FAIR      18  16  92 S7        29.94R WCI   9
FARGO          FAIR      28  26  92 W6        29.95R WCI  22
BUFFALO SD       N/A     29  21  72 W6        29.90R WCI  23
RAPID CITY     LGT SNOW  30  28  92 N8        29.98S FOG     WCI  22
$$

REGIONAL REPORTS...WYOMING/IDAHO/WASHINGTON

CITY           SKY/WX    TMP DP  RH WIND       PRES   REMARKS
GILLETTE       CLOUDY    26  22  84 SW3       29.95R
SHERIDAN       FAIR      25  20  81 CALM      29.97R
BUFFALO WY     CLOUDY    26  14  60 NW7       29.95R WCI  18
CODY           FAIR      24  21  88 SW3       29.96R
YELLOWSTONE LA   N/A     -5  -9  83 CALM      29.93R
IDAHO FALLS    FAIR      23  18  81 NW3       30.01R
SALMON         CLOUDY    27  22  81 CALM      30.09R
BOISE          FAIR      32  27  81 CALM      30.13R
SPOKANE        FAIR      32  30  92 S7        30.08R WCI  26
$$

REGIONAL REPORTS...ALBERTA

CITY           SKY/WX    TMP DP  RH WIND       PRES   REMARKS
CALGARY        PTCLDY    34  10  37 W9G17     29.81R WCI  26
CARDSTON         N/A     34  18  51 W14G20      N/A  WCI  24
EDMONTON       CLOUDY    18  16  93 CALM      29.83R
FORT MCMURRAY  FLURRIES  16  12  86 NW5       29.92R
HIGH LEVEL     FLURRIES  14  10  85 N7        29.94S WCI   4
LETHBRIDGE     PTCLDY    34  19  55 W22G29    29.86R WCI  22
LLOYDMINSTER   CLOUDY    21  21 100 S6        29.84  WCI  14
MEDICINE HAT   CLEAR     25  19  80 SW13      29.86R WCI  13
MILK RIVER       N/A     19  14  79 W9          N/A  WCI   9
ONEFOUR          N/A     14  12  92 SE8         N/A  WCI   3
PEACE RIVER    CLOUDY    18  16  93 NE9       29.87R WCI   6
PINCHER CREEK  CLEAR     28  19  69 W9G17     29.90R WCI  20
WATERTON GATE    N/A     32  18  55 SW25G38     N/A  WCI  19
$$

REGIONAL REPORTS...SASKATCHEWAN

CITY           SKY/WX    TMP DP  RH WIND       PRES   REMARKS
CORONACH         N/A     10   7  85 NE1         N/A
CYPRESS HILLS    N/A     28  14  54 W7          N/A  WCI  21
ESTEVAN        CLEAR     10   7  85 SW7       29.94R WCI   0
MOOSE JAW        N/A     14  10  85 S1          N/A
PRINCE ALBERT  CLOUDY    18  14  86 E2        29.93R
REGINA         CLEAR     18  16  93 S5        29.92R
ROCKGLEN         N/A     16  12  86 W9          N/A  WCI   4
SASKATOON      PTCLDY    12  10  92 S6        29.91R WCI   3
SWIFT CURRENT  CLEAR     19  14  79 SW12      29.85R WCI   7
VAL MARIE        N/A      1   0  92 S1          N/A
$$




USA.gov is the U.S. government's official web portal to all federal, state and local government web resources and services.